PHOENIX (45260 NORAD) Tracking and Keplerian Element Data

This shows tracking and keplerian element data for the satellite.

Feedback or suggestion? Click here.




ElementValue
Catalog45260
NamePHOENIX
Epoch Orbit589
Epoch Day88.10441926
Epoch Year2020
RAAN29.3911
Inclination51.6432
Eccentricity0.0009284
Argument of Perigee60.499
Mean Anonmoly299.6924
Mean Motion15.50411336
Decay Rate7.878E-05
L11 45260U 98067RD 20088.10441926 .00007878 00000-0 14369-3 0 9998
L22 45260 51.6432 29.3911 0009284 60.4990 299.6924 15.50411336 5898

Live tracking and technical data element details for PHOENIX (NORAD 45260). PHOENIX can be tracked NOW for your location showing map with azimuth and elevation plus other details from your city location.

Track the satellite on the map from your city or location and see movement details for azimuth, elevation, latitude, longitude, range, height, and movement on the map or in text.







IsCatalogInMostPopularTable: catalog: 45260, numindb: 15
Update: records affected: 1



GetName: 45260 PHOENIX

Hit Count: updated at: Sat, 28 Mar 2020 21:47:40 GMT